Regional Weather Roundup
Issued by NWS New Orleans/Baton Rouge, LA

Home | Current Version | Previous Version | Text Only | Print | Product List | Glossary On
Versions: 1 2 3 4 5 6 7 8 9 10 11 12 13 14 15 16 17 18 19 20 21 22 23 24 25 26 27 28 29 30 31 32 33 34 35 36 37 38 39 40 41 42 43 44 45 46 47 48 49 50
942
ASUS44 KLIX 142310
RWRLIX
NEW ORLEANS REGIONAL WEATHER ROUNDUP
NATIONAL WEATHER SERVICE NEW ORLEANS LA
500 PM CST SUN FEB 14 2016

NOTE: "FAIR" INDICATES FEW OR NO CLOUDS BELOW 12,000 FEET WITH NO
      SIGNIFICANT WEATHER AND/OR OBSTRUCTIONS TO VISIBILITY.
      SKY/WX - SKY CONDITION AND SIGNIFICANT WEATHER.
      TMP - AIR TEMPERATURE.     DP    - DEWPOINT TEMPERATURE.
      RH  - RELATIVE HUMIDITY.   PRES  - PRESSURE.
      HI  - HEAT INDEX.          WCI   - WIND CHILL INDEX.

*  THESE STATIONS ARE NOT NWS OR FAA STATIONS AND ARE NOT UNDER
   NWS QUALITY CONTROL.

LAZ038-040-048-061>063-065>067-069-150000-
SOUTHEAST LOUISIANA

CITY           SKY/WX    TMP DP  RH WIND       PRES   REMARKS
N.O. AUDUBON     N/A     67  54  62 MISG        N/A
N.O. INTL ARPT CLOUDY    67  52  58 SE12      30.07S
N.O. LAKEFRONT CLOUDY    64  53  67 SE15      30.08F
N.O. DOWNTOWN* NOT AVBL
RESERVE*       MOCLDY    67  54  63 SE8       30.06S
SLIDELL        CLOUDY    63  53  70 SE8       30.08F
BATON ROUGE    CLOUDY    67  50  54 S13       30.02F
BOOTHVILLE     CLOUDY    65  56  72 SE7       30.08F
BELLE CHASSE   MOCLDY    64  55  72 E10       30.07S
BOGALUSA*        N/A     65  50  58 SE13G18   30.10S
GALLIANO*      MOCLDY    67  57  71 SE6       30.06S
NEW ROADS*     CLOUDY    66  52  60 SE10      30.01F
GONZALES*      CLOUDY    67  52  59 S6        30.04S
HAMMOND*       CLOUDY    63  50  63 SE12G18   30.06S
HOUMA*         MOCLDY    64  55  72 SE10      30.06S
PORT FOURCHON* CLEAR     66  59  77 SE10      30.06S

$$

MSZ070-080>082-150000-
SOUTHERN MISSISSIPPI

CITY           SKY/WX    TMP DP  RH WIND       PRES   REMARKS
MCCOMB         CLOUDY    64  50  60 S13G22    30.04F
GULFPORT       CLOUDY    62  52  69 E15       30.11S
BILOXI         CLOUDY    62  55  77 E12       30.12S
PASCAGOULA     CLOUDY    61  51  70 SE10      30.14S
STENNIS ARPT*  MOCLDY    63  48  59 E7        30.11S

$$

COASTAL OBSERVATIONS
LAKE AND NEARSHORE STATIONS

STATION/POSITION TIME  TEMP    WIND        PRES    WAVE
                       AIR SEA DIR/SP/G            HT/PER
                 (UTC) (F)     (DEG/KT/KT) (MB)    (FT/S)
PASCAGOULA       2200   61                 1019.8
WAVELAND YACHT   2200   61 54              1019.3
GRAND ISLE       2200   64 62              1018.0
NEW CANAL        2200   67 56              1017.7
SHELL BEACH      2200   63 58              1018.2

OFFSHORE STATIONS

STATION/POSITION TIME  TEMP    WIND        PRES    WAVE
                       AIR SEA DIR/SP/G            HT/PER
                 (UTC) (F)     (DEG/KT/KT) (MB)    (FT/S)

$$





USA.gov is the U.S. government's official web portal to all federal, state and local government web resources and services.